Location: Newark
(25.3833°N, 97.4000°E)
Time: 22:12:09
(UTC+00:00)

First-Move - Visible Passes

Search period start: 21 February 2020 00:00
Search period end: 02 March 2020 00:00
Orbit: 578 x 667 km, 97.6° (Epoch: 21 February)

Date Brightness Start Highest point End Pass type
(mag) Time Alt. Az. Time Alt. Az. Time Alt. Az.
21 Feb ? 12:03:41 10° WSW 12:05:41 13° W 12:07:44 10° WNW visible
21 Feb ? 22:22:59 10° ENE 22:25:13 13° E 22:27:25 10° SE visible
22 Feb ? 22:39:53 10° NE 22:43:28 23° E 22:46:59 10° SSE visible
23 Feb ? 22:57:26 10° NNE 23:01:40 38° E 23:05:50 10° SSE visible
24 Feb ? 23:15:19 10° NNE 23:19:50 66° E 23:24:16 10° S visible
26 Feb ? 11:57:38 10° SW 12:00:13 15° W 12:02:51 10° WNW visible
26 Feb ? 22:18:19 10° ENE 22:19:47 11° E 22:21:13 10° ESE visible
27 Feb ? 22:34:45 10° NE 22:38:02 20° E 22:41:14 10° SE visible
28 Feb ? 22:52:11 10° NE 22:56:15 33° E 23:00:12 10° SSE visible
29 Feb ? 23:09:58 10° NNE 23:14:25 57° E 23:18:44 10° S visible
